[[{"header":{"parameterUnit":"m.s-1","parameterCategory":1,"la1":30.2991,"la2":30.254,"lo1":-89.0895,"lo2":-89.0444,"dy":0.0017,"dx":0.0017,"nx":28,"ny":28,"refTime":"2025-08-02T09:00:00:Z","depth":0,"parameterNumber":2,"parameterNumberName":"U-component_of_WINDS"},"data":[0,0,0,0,0,0,0,0,0,0,0,0,0,0,0,0,0,0,0,0,0,0,0,0,0,0,0,0,0,0,0,0,0,0,0,0,0,0,0,0,0,0,0,0,0,0,0,0,0,0,0,0,0,0,0,0,0,0,3.3308,3.3309,0,3.3388,3.3389,3.339,3.3334,3.3332,3.3329,3.3327,3.3408,3.3412,3.3417,0,0,0,0,0,0,0,0,0,0,0,0,0,3.3106,3.311,3.3308,3.3309,3.331,3.3388,3.3389,3.339,3.3335,3.3332,3.3329,3.3326,3.3406,3.3412,3.3417,0,0,0,0,0,0,0,0,0,0,0,0,0,3.3191,3.3112,3.3307,3.3292,3.3291,3.3387,3.3389,3.339,3.3335,3.3331,3.3328,3.3324,3.3405,3.3411,3.3418,3.3534,0,0,3.3438,3.3441,0,0,0,0,0,0,0,0,3.3186,3.3198,3.3293,3.3293,3.3292,3.3347,3.3347,3.3438,3.3336,3.3318,3.3327,3.3322,3.3391,3.3398,3.3421,3.3538,3.3541,3.3439,3.3443,3.3446,3.3448,0,0,0,0,0,0,0,3.318,3.3195,3.3339,3.3294,3.3294,3.328,3.3288,3.3364,3.3374,3.332,3.3316,3.3326,3.339,3.3415,3.3423,3.3543,3.3439,3.3445,3.3449,3.3451,3.3758,3.3762,0,0,0,0,0,0,3.3176,3.319,3.3337,3.3342,3.3229,3.3287,3.3296,3.3333,3.3373,3.3376,3.3329,3.3323,3.3405,3.3415,3.3426,3.3563,3.3446,3.3452,3.3456,3.3754,3.3759,3.3764,0,0,0,0,0,0,3.3172,3.319,3.3333,3.3265,3.3282,3.3294,3.3337,3.3337,3.3362,3.3381,3.3382,3.3353,3.3403,3.3416,3.3508,3.3566,3.3455,3.3461,3.3749,3.3756,3.3762,3.3841,0,0,0,0,0,0,3.3166,3.3189,3.3233,3.3266,3.3286,3.3414,3.3341,3.3341,3.3374,3.3367,3.3404,3.3406,3.3401,3.3498,3.3514,3.3573,3.3467,3.3744,3.3752,3.376,3.3833,3.3849,3.3863,0,0,0,0,0,3.3159,3.3252,3.3235,3.3253,3.3342,3.3418,3.3429,3.3421,3.3379,3.3423,3.3435,3.3405,3.3557,3.3508,3.3526,3.3587,3.374,3.375,3.3759,3.3826,3.3846,3.3862,0,0,0,0,0,0,3.3224,3.3256,3.3238,3.3344,3.3379,3.3408,3.3464,3.3442,3.3489,3.3481,3.3469,3.3478,3.3574,3.359,3.3534,3.3702,3.3642,3.3655,3.3687,3.3706,3.372,3.3713,3.3472,0,0,0,0,0,3.325,3.331,3.3335,3.3426,3.3444,3.3452,3.3484,3.3476,3.3511,3.3525,3.3544,3.3579,3.3635,3.3672,3.3724,3.3836,3.3843,3.3888,3.3902,3.3914,3.3925,3.3985,3.4005,3.3794,3.3794,3.3794,0,0,3.3306,3.3331,3.3369,3.3439,3.3465,3.3526,3.3464,3.3531,3.3577,3.3535,3.3622,3.3638,3.3677,3.3779,3.3825,3.3795,3.3986,3.3926,3.3936,3.394,3.3997,3.4017,3.4035,3.3801,3.3799,3.3798,0,0,3.3437,3.3463,3.3541,3.3569,3.3609,3.3614,3.3633,3.3666,3.3675,3.3763,3.3733,3.3787,3.3883,3.3912,3.3939,3.4084,3.4057,3.4102,3.4178,3.4236,3.4253,3.4268,3.4318,3.4336,3.4113,3.4113,3.4113,0,3.35,3.3592,3.3584,3.3654,3.3686,3.3652,3.3731,3.3759,3.3814,3.3837,3.3803,3.3924,3.3948,3.4056,3.4091,3.4115,3.4136,3.4096,3.4251,3.4266,3.4279,3.4327,3.4346,3.4118,3.4118,3.4117,3.4117,0,3.3667,3.3731,3.3789,3.3844,3.3883,3.3957,3.396,3.4001,3.399,3.3998,3.4088,3.4116,3.4173,3.4199,3.4188,3.4306,3.4286,3.4253,3.4192,3.4305,3.4349,3.4368,3.4125,3.4123,3.4122,3.4121,0,0,3.3838,3.3889,3.391,3.3935,3.3978,3.4027,3.4101,3.4157,3.4191,3.4232,3.4292,3.4376,3.4345,3.4376,3.4369,3.4421,3.4533,3.4381,3.4382,3.4407,3.4663,3.4686,3.4707,3.4517,3.452,3.4523,3.4659,0,3.397,3.4097,3.4093,3.4212,3.4271,3.4241,3.4305,3.4339,3.4349,3.44,3.4412,3.447,3.4426,3.4445,3.4495,3.4509,3.4584,3.4499,3.4572,3.4574,3.456,3.4731,3.4756,3.4882,3.4677,3.468,3.4682,0,3.414,3.4187,3.4311,3.4347,3.4371,3.4428,3.448,3.453,3.4568,3.4572,3.4608,3.4593,3.4667,3.4607,3.4708,3.4651,3.4681,3.4693,3.4697,3.4701,3.4633,3.4738,3.4923,3.4941,3.471,3.4707,3.4705,0,3.425,3.4344,3.4431,3.4453,3.4497,3.4538,3.4558,3.4592,3.4627,3.4672,3.4695,3.4749,3.4778,3.482,3.482,3.4776,3.4923,3.4863,3.4927,3.4927,3.4957,3.4954,3.5147,3.4981,3.498,3.498,3.498,0,3.4397,3.4474,3.4481,3.4534,3.4619,3.4615,3.47,3.4716,3.4747,3.4802,3.4781,3.4834,3.4832,3.4886,3.4887,3.497,3.4984,3.4989,3.4987,3.4989,3.4988,3.5007,3.4997,3.4985,3.4984,3.4983,3.4982,0,3.4532,3.4541,3.4633,3.4667,3.4678,3.4739,3.4769,3.4819,3.4829,3.4899,3.4916,3.493,3.4992,3.4998,3.507,3.507,3.5171,3.5162,3.5158,3.5156,3.5219,3.5212,3.5428,3.5456,3.5274,3.5275,3.5277,0,3.4624,3.4682,3.4724,3.476,3.4782,3.4841,3.4876,3.4875,3.4913,3.4961,3.5006,3.5066,3.5114,3.5215,3.5231,3.5287,3.5277,3.5349,3.5285,3.5285,3.5276,3.5271,3.5277,3.536,3.5362,3.5364,3.5365,0,3.4785,3.4786,3.4839,3.4893,3.4936,3.4979,3.5018,3.5049,3.5053,3.5097,3.516,3.5197,3.5272,3.5331,3.5386,3.5406,3.5386,3.5386,3.5403,3.5404,3.5399,3.5401,3.5189,3.538,3.5378,3.5377,3.5377,3.5376,3.49,3.495,3.4988,3.5047,3.5077,3.5115,3.5164,3.5181,3.5234,3.5294,3.529,3.536,3.5398,3.5469,3.5494,3.5549,3.5524,3.555,3.5556,3.5562,3.5568,3.5393,3.5559,3.5558,3.5558,3.5558,3.5557,0,3.5058,3.5081,3.5136,3.5192,3.5239,3.5218,3.5262,3.5302,3.5364,3.5401,3.5449,3.5522,3.5581,3.5603,3.566,3.57,3.5692,3.5715,3.571,3.5715,3.5587,3.5565,3.572,3.572,3.572,3.572,3.572,3.572,3.5145,3.523,3.5236,3.5336,3.5358,3.5427,3.5453,3.5489,3.5518,3.5601,3.565,3.5664,3.5696,3.5755,3.5808,3.5813,3.5835,3.5861,3.5862,3.5741,3.5724,3.5709,3.5688,3.5866,3.5866,3.5985,3.5986,3.5987]},{"header":{"parameterUnit":"m.s-1","parameterCategory":1,"la1":30.2991,"la2":30.254,"lo1":-89.0895,"lo2":-89.0444,"dy":0.0017,"dx":0.0017,"nx":28,"ny":28,"refTime":"2025-08-02T09:00:00:Z","depth":0,"parameterNumber":3,"parameterNumberName":"V-component_of_WINDS"},"data":[0,0,0,0,0,0,0,0,0,0,0,0,0,0,0,0,0,0,0,0,0,0,0,0,0,0,0,0,0,0,0,0,0,0,0,0,0,0,0,0,0,0,0,0,0,0,0,0,0,0,0,0,0,0,0,0,0,0,2.63,2.6302,0,2.6437,2.6438,2.644,2.6468,2.6466,2.6465,2.6464,2.6606,2.6611,2.6615,0,0,0,0,0,0,0,0,0,0,0,0,0,2.6066,2.607,2.63,2.6302,2.6304,2.6437,2.6439,2.644,2.6468,2.6466,2.6465,2.6464,2.6605,2.661,2.6616,0,0,0,0,0,0,0,0,0,0,0,0,0,2.6182,2.6071,2.63,2.6333,2.6338,2.6436,2.6439,2.6441,2.6468,2.6466,2.6465,2.6463,2.6603,2.661,2.6617,2.6692,0,0,2.6638,2.6642,0,0,0,0,0,0,0,0,2.6175,2.619,2.6327,2.6331,2.6336,2.6434,2.6408,2.6525,2.6468,2.6419,2.6464,2.6463,2.655,2.6561,2.6591,2.6699,2.6705,2.6639,2.6643,2.6646,2.6648,0,0,0,0,0,0,0,2.6167,2.6184,2.6354,2.6329,2.6335,2.6342,2.6357,2.643,2.6492,2.6423,2.6425,2.6441,2.6552,2.6584,2.6594,2.6707,2.6639,2.6645,2.665,2.6652,2.6887,2.6888,0,0,0,0,0,0,2.6153,2.6178,2.635,2.6358,2.625,2.6348,2.6364,2.6404,2.6491,2.6503,2.6442,2.6442,2.6572,2.6586,2.6599,2.6695,2.6646,2.6653,2.6657,2.6885,2.6887,2.6889,0,0,0,0,0,0,2.6148,2.6168,2.6345,2.6269,2.6292,2.6354,2.6398,2.6407,2.6439,2.6505,2.6517,2.6462,2.6572,2.6589,2.6669,2.67,2.6656,2.6663,2.6882,2.6885,2.6888,2.6886,0,0,0,0,0,0,2.6141,2.6166,2.6194,2.6269,2.6296,2.6411,2.64,2.6411,2.6451,2.6451,2.6528,2.6539,2.6572,2.6659,2.6676,2.6709,2.6668,2.688,2.6884,2.6887,2.6883,2.6888,2.6892,0,0,0,0,0,2.6132,2.6188,2.6196,2.6216,2.6333,2.6413,2.6428,2.6465,2.6453,2.6483,2.6526,2.6536,2.6694,2.6666,2.6687,2.6722,2.6878,2.6883,2.6887,2.6881,2.6887,2.6892,0,0,0,0,0,0,2.6116,2.6199,2.6208,2.6289,2.6344,2.6417,2.6456,2.647,2.6529,2.6527,2.657,2.6587,2.6665,2.6702,2.667,2.6801,2.6785,2.6794,2.6774,2.678,2.6785,2.6775,2.6674,0,0,0,0,0,2.6122,2.6179,2.6249,2.6314,2.6341,2.6394,2.643,2.6454,2.6512,2.6535,2.6584,2.6641,2.6704,2.6744,2.6805,2.6889,2.6907,2.6923,2.6928,2.6931,2.6938,2.6987,2.6995,2.6903,2.6903,2.6903,0,0,2.6134,2.6187,2.622,2.6312,2.6357,2.6417,2.6413,2.6476,2.6521,2.6545,2.6624,2.6662,2.6729,2.6811,2.685,2.6844,2.6968,2.6937,2.6939,2.6944,2.6992,2.7001,2.7008,2.6906,2.6906,2.6905,0,0,2.6188,2.6233,2.6293,2.6338,2.6407,2.6442,2.6456,2.6528,2.6554,2.6634,2.6653,2.6708,2.6814,2.6862,2.69,2.6973,2.6985,2.6992,2.7015,2.7062,2.7069,2.7076,2.7104,2.7113,2.6998,2.6998,2.6998,0,2.6195,2.6285,2.6322,2.6385,2.6425,2.645,2.6512,2.6554,2.6639,2.6667,2.6659,2.6794,2.684,2.6935,2.6953,2.6982,2.7002,2.6983,2.7065,2.7072,2.7079,2.7106,2.7116,2.6999,2.6999,2.6999,2.6999,0,2.6292,2.6354,2.6394,2.6476,2.6521,2.6582,2.663,2.6671,2.6691,2.6727,2.6809,2.6866,2.694,2.6964,2.6984,2.7062,2.7057,2.7056,2.7042,2.7088,2.7114,2.7124,2.6999,2.6999,2.6999,2.6999,0,0,2.6338,2.644,2.6454,2.6492,2.657,2.6619,2.6683,2.6754,2.679,2.6848,2.6903,2.6993,2.6994,2.7037,2.7063,2.7104,2.716,2.7099,2.7101,2.7109,2.7252,2.7252,2.7263,2.7169,2.7171,2.7172,2.7247,0,2.6402,2.6516,2.6552,2.6647,2.6706,2.6731,2.6786,2.6841,2.6877,2.6933,2.6973,2.7036,2.7032,2.7058,2.71,2.7144,2.719,2.7139,2.7222,2.7225,2.7205,2.7277,2.7277,2.7344,2.7257,2.7259,2.726,0,2.6491,2.6551,2.6652,2.6724,2.675,2.6799,2.6869,2.6921,2.6984,2.7008,2.7056,2.7079,2.7148,2.7129,2.7226,2.7191,2.7227,2.7254,2.7258,2.7268,2.7245,2.7289,2.7366,2.7377,2.7276,2.7275,2.7274,0,2.6516,2.6622,2.6697,2.6728,2.6813,2.6847,2.6885,2.6946,2.6987,2.7048,2.7076,2.7144,2.7182,2.7235,2.7277,2.7259,2.737,2.7355,2.7393,2.7392,2.7416,2.7414,2.7501,2.7437,2.7437,2.7437,2.7437,0,2.6584,2.6645,2.6709,2.6755,2.6825,2.6866,2.6935,2.6973,2.7028,2.7083,2.7109,2.716,2.7211,2.7269,2.7302,2.7378,2.7395,2.7417,2.7425,2.7415,2.7412,2.744,2.7436,2.744,2.7439,2.7439,2.7438,0,2.6624,2.6669,2.6752,2.6826,2.6846,2.6894,2.6958,2.7005,2.7042,2.7111,2.713,2.7189,2.7259,2.7306,2.7395,2.7418,2.7501,2.7508,2.748,2.7484,2.752,2.7516,2.7628,2.7646,2.757,2.757,2.7571,0,2.6665,2.6712,2.6792,2.683,2.6867,2.6929,2.6971,2.7014,2.7058,2.7134,2.7171,2.7243,2.7303,2.7415,2.7466,2.7536,2.7545,2.7579,2.7555,2.7545,2.7547,2.7544,2.755,2.7583,2.7584,2.7584,2.7585,0,2.6732,2.6752,2.6812,2.688,2.693,2.6986,2.7042,2.7073,2.7126,2.7174,2.7246,2.7292,2.7384,2.7456,2.753,2.757,2.7587,2.7592,2.7605,2.7595,2.7578,2.7589,2.7491,2.7589,2.7589,2.7588,2.7588,2.7588,2.6775,2.6819,2.6882,2.6948,2.6995,2.7047,2.7094,2.7138,2.7198,2.7276,2.7299,2.7374,2.7438,2.7539,2.7581,2.7642,2.7638,2.7656,2.7661,2.7665,2.7666,2.7567,2.7655,2.7655,2.7655,2.7655,2.7655,0,2.6844,2.6886,2.6947,2.7025,2.7077,2.7088,2.7151,2.7195,2.7261,2.7318,2.7377,2.7461,2.7531,2.7588,2.7661,2.7699,2.7709,2.7717,2.7715,2.7724,2.7664,2.7646,2.7708,2.7708,2.7708,2.7708,2.7708,2.7708,2.6887,2.6963,2.6991,2.709,2.7132,2.7206,2.7242,2.7291,2.7337,2.7429,2.7487,2.7524,2.7583,2.766,2.7726,2.7741,2.7767,2.7774,2.7791,2.7734,2.7728,2.7722,2.7706,2.7779,2.7779,2.7846,2.7846,2.7847]}]]